English version Home page |
Updated on August 22, 2010 |
|
軌道要素T 2010 Apr. 6.109 TT MPC q 0.61383 (2000.0) P Q Peri. 120.718 +0.286818 +0.458089 Node 237.294 +0.046051 +0.870654 e 1.0 Incl. 89.143 +0.956877 -0.179211 From 67 observations 2010 Mar. 26-Apr. 6.
|
星図
|
光度変化m1 = 14.0 + 5 logΔ + 15.0 log r
|
軌道要素はM.P.E.C. 2010-G43に掲載されたものです。
|